When you browse on this site, cookies collect data to enhance your experience and personalize the content and advertising you see.
Visit our Privacy Policy to learn more. By continuing to use the site, you agree to this use of cookies and data.
  • In Germany
  • List of Countries
  • For 7 days
  • Water Temperature
  • Satellite Maps
  • Weather Map
  • Weather Widgets
  • user-avatar
    Login

    Hourly Weather Lusaka

    Today, 17 December, Monday

    Time Temperature Precipitation Wind Pressure Humidity
    00:00 +22°C° 0.4 mm 1 mps 658 mmHg 86%
    01:00 +21°C° 0.4 mm 1 mps 657 mmHg 87%
    02:00 +21°C° 0.4 mm 1 mps 657 mmHg 88%
    03:00 +21°C° 0.2 mm 1 mps 657 mmHg 89%
    04:00 +21°C° 0.2 mm 1 mps 657 mmHg 90%
    05:00 +20°C° 0.2 mm 1 mps 657 mmHg 91%
    06:00 +21°C° 0.2 mm 1 mps 658 mmHg 87%
    07:00 +21°C° 0.2 mm 2 mps 658 mmHg 83%
    08:00 +23°C° 0.2 mm 2 mps 659 mmHg 79%
    09:00 +25°C° 0.7 mm 2 mps 659 mmHg 73%
    10:00 +26°C° 0.7 mm 2 mps 659 mmHg 68%
    11:00 +27°C° 0.7 mm 3 mps 659 mmHg 62%
    12:00 +27°C° 2.1 mm 2 mps 658 mmHg 64%
    13:00 +27°C° 2.1 mm 2 mps 658 mmHg 67%
    14:00 +27°C° 2.1 mm 2 mps 657 mmHg 70%
    15:00 +26°C° 2.6 mm 1 mps 657 mmHg 75%
    16:00 +25°C° 2.6 mm 1 mps 657 mmHg 80%
    17:00 +24°C° 2.6 mm 1 mps 656 mmHg 85%
    18:00 +23°C° 0.9 mm 1 mps 656 mmHg 87%
    19:00 +22°C° 0.9 mm 1 mps 656 mmHg 88%
    20:00 +22°C° 0.9 mm 1 mps 657 mmHg 89%
    21:00 +21°C° 0 mm 1 mps 657 mmHg 89%
    22:00 +21°C° 0 mm 1 mps 657 mmHg 90%
    23:00 +21°C° 0 mm 1 mps 657 mmHg 90%

    Tomorrow, 18 December, Tuesday

    Time Temperature Precipitation Wind Pressure Humidity
    00:00 +21°C° 0 mm 1 mps 657 mmHg 91%
    01:00 +21°C° 0 mm 1 mps 656 mmHg 92%
    02:00 +21°C° 0 mm 1 mps 656 mmHg 93%
    03:00 +20°C° 0.4 mm 1 mps 656 mmHg 93%
    04:00 +20°C° 0.4 mm 1 mps 656 mmHg 94%
    05:00 +20°C° 0.4 mm 1 mps 656 mmHg 95%
    06:00 +21°C° 0.6 mm 1 mps 657 mmHg 91%
    07:00 +22°C° 0.6 mm 1 mps 657 mmHg 88%
    08:00 +23°C° 0.6 mm 1 mps 658 mmHg 85%
    09:00 +24°C° 1.1 mm 1 mps 658 mmHg 81%
    10:00 +25°C° 1.1 mm 1 mps 658 mmHg 76%
    11:00 +26°C° 1.1 mm 1 mps 658 mmHg 71%
    12:00 +27°C° 1.3 mm 1 mps 658 mmHg 67%
    13:00 +28°C° 1.3 mm 1 mps 657 mmHg 63%
    14:00 +27°C° 1.3 mm 0 mps 657 mmHg 59%
    15:00 +27°C° 1.8 mm 0 mps 656 mmHg 62%
    16:00 +26°C° 1.8 mm 0 mps 656 mmHg 65%
    17:00 +25°C° 1.8 mm 0 mps 655 mmHg 68%
    18:00 +23°C° 0.5 mm 0 mps 655 mmHg 72%
    19:00 +24°C° 0.5 mm 1 mps 655 mmHg 76%
    20:00 +23°C° 0.5 mm 1 mps 655 mmHg 81%
    21:00 +22°C° 0.1 mm 1 mps 655 mmHg 83%
    22:00 +22°C° 0.1 mm 1 mps 656 mmHg 85%
    23:00 +21°C° 0.1 mm 1 mps 656 mmHg 86%

    Day after tomorrow, 19 December, Wednesday

    Time Temperature Precipitation Wind Pressure Humidity
    00:00 +21°C° 0.2 mm 1 mps 655 mmHg 87%
    01:00 +21°C° 0.2 mm 1 mps 655 mmHg 88%
    02:00 +21°C° 0.2 mm 1 mps 654 mmHg 89%
    03:00 +20°C° 0 mm 1 mps 654 mmHg 90%
    04:00 +20°C° 0 mm 1 mps 654 mmHg 91%
    05:00 +20°C° 0 mm 1 mps 655 mmHg 91%
    06:00 +21°C° 0.1 mm 1 mps 655 mmHg 87%
    07:00 +22°C° 0.1 mm 1 mps 656 mmHg 83%
    08:00 +23°C° 0.1 mm 2 mps 657 mmHg 80%
    09:00 +25°C° 1 mm 2 mps 657 mmHg 75%
    10:00 +26°C° 1 mm 2 mps 657 mmHg 70%
    11:00 +27°C° 1 mm 2 mps 657 mmHg 65%
    12:00 +28°C° 0.5 mm 1 mps 657 mmHg 61%
    13:00 +29°C° 0.5 mm 1 mps 656 mmHg 56%
    14:00 +31°C° 0.5 mm 1 mps 656 mmHg 52%
    15:00 +30°C° 0.3 mm 1 mps 655 mmHg 54%
    16:00 +29°C° 0.3 mm 1 mps 655 mmHg 56%
    17:00 +29°C° 0.3 mm 1 mps 654 mmHg 58%
    18:00 +27°C° 0.1 mm 1 mps 655 mmHg 64%
    19:00 +25°C° 0.1 mm 1 mps 655 mmHg 69%
    20:00 +24°C° 0.1 mm 1 mps 655 mmHg 75%
    21:00 +23°C° 0.2 mm 1 mps 655 mmHg 77%
    22:00 +23°C° 0.2 mm 1 mps 655 mmHg 80%
    23:00 +22°C° 0.2 mm 1 mps 655 mmHg 83%

    20 December, Thursday

    Time Temperature Precipitation Wind Pressure Humidity
    00:00 +22°C° 0.2 mm 1 mps 655 mmHg 85%
    01:00 +22°C° 0.2 mm 1 mps 654 mmHg 87%
    02:00 +21°C° 0.2 mm 1 mps 654 mmHg 89%
    03:00 +21°C° 0 mm 1 mps 654 mmHg 90%
    04:00 +21°C° 0 mm 1 mps 654 mmHg 91%
    05:00 +20°C° 0 mm 1 mps 654 mmHg 92%
    06:00 +22°C° 0 mm 1 mps 655 mmHg 87%
    07:00 +23°C° 0 mm 2 mps 656 mmHg 82%
    08:00 +24°C° 0 mm 2 mps 656 mmHg 77%
    09:00 +26°C° 0.2 mm 2 mps 657 mmHg 69%
    10:00 +28°C° 0.2 mm 2 mps 657 mmHg 62%
    11:00 +29°C° 0.2 mm 2 mps 657 mmHg 54%
    12:00 +29°C° 0.6 mm 2 mps 657 mmHg 55%
    13:00 +29°C° 0.6 mm 2 mps 656 mmHg 56%
    14:00 +29°C° 0.6 mm 2 mps 655 mmHg 57%
    15:00 +28°C° 0.7 mm 2 mps 655 mmHg 60%
    16:00 +28°C° 0.7 mm 2 mps 655 mmHg 64%
    17:00 +27°C° 0.7 mm 2 mps 654 mmHg 68%
    18:00 +26°C° 0.3 mm 2 mps 654 mmHg 72%
    19:00 +25°C° 0.3 mm 1 mps 655 mmHg 77%
    20:00 +23°C° 0.3 mm 1 mps 655 mmHg 81%
    21:00 +23°C° 0 mm 1 mps 655 mmHg 82%
    22:00 +23°C° 0 mm 1 mps 655 mmHg 83%
    23:00 +23°C° 0 mm 1 mps 655 mmHg 84%

    21 December, Friday

    Time Temperature Precipitation Wind Pressure Humidity
    00:00 +22°C° 0.2 mm 1 mps 655 mmHg 85%
    01:00 +22°C° 0.2 mm 1 mps 655 mmHg 86%
    02:00 +21°C° 0.2 mm 1 mps 654 mmHg 87%
    03:00 +21°C° 0.8 mm 1 mps 655 mmHg 88%
    04:00 +21°C° 0.8 mm 1 mps 655 mmHg 90%
    05:00 +20°C° 0.8 mm 1 mps 655 mmHg 91%
    06:00 +21°C° 0.5 mm 1 mps 656 mmHg 86%
    07:00 +23°C° 0.5 mm 1 mps 657 mmHg 81%
    08:00 +24°C° 0.5 mm 1 mps 658 mmHg 76%
    09:00 +26°C° 0.6 mm 1 mps 658 mmHg 70%
    10:00 +27°C° 0.6 mm 1 mps 658 mmHg 63%
    11:00 +29°C° 0.6 mm 1 mps 658 mmHg 57%
    12:00 +29°C° 0.7 mm 2 mps 657 mmHg 56%
    13:00 +29°C° 0.7 mm 2 mps 657 mmHg 55%
    14:00 +29°C° 0.7 mm 2 mps 656 mmHg 54%
    15:00 +29°C° 0.5 mm 2 mps 656 mmHg 56%
    16:00 +28°C° 0.5 mm 2 mps 655 mmHg 59%
    17:00 +27°C° 0.5 mm 2 mps 655 mmHg 62%
    18:00 +26°C° 0.1 mm 2 mps 655 mmHg 66%
    19:00 +25°C° 0.1 mm 2 mps 655 mmHg 70%
    20:00 +23°C° 0.1 mm 1 mps 655 mmHg 75%
    21:00 +23°C° 0 mm 1 mps 655 mmHg 76%
    22:00 +22°C° 0 mm 1 mps 656 mmHg 77%
    23:00 +22°C° 0 mm 1 mps 656 mmHg 79%

    22 December, Saturday

    Time Temperature Precipitation Wind Pressure Humidity
    00:00 +22°C° 0 mm 1 mps 655 mmHg 80%
    01:00 +21°C° 0 mm 1 mps 655 mmHg 81%
    02:00 +21°C° 0 mm 1 mps 654 mmHg 83%
    03:00 +21°C° 0.1 mm 1 mps 655 mmHg 84%
    04:00 +21°C° 0.1 mm 1 mps 655 mmHg 85%
    05:00 +20°C° 0.1 mm 1 mps 655 mmHg 87%
    06:00 +20°C° 0.1 mm 2 mps 656 mmHg 84%
    07:00 +23°C° 0.1 mm 2 mps 657 mmHg 80%
    08:00 +24°C° 0.1 mm 3 mps 657 mmHg 77%
    09:00 +24°C° 0.8 mm 3 mps 657 mmHg 74%
    10:00 +25°C° 0.8 mm 3 mps 657 mmHg 71%
    11:00 +26°C° 0.8 mm 3 mps 657 mmHg 69%
    12:00 +27°C° 0.8 mm 3 mps 657 mmHg 65%
    13:00 +28°C° 0.8 mm 2 mps 656 mmHg 62%
    14:00 +28°C° 0.8 mm 2 mps 656 mmHg 59%
    15:00 +28°C° 0.2 mm 2 mps 655 mmHg 59%
    16:00 +28°C° 0.2 mm 2 mps 655 mmHg 60%
    17:00 +27°C° 0.2 mm 2 mps 655 mmHg 60%
    18:00 +26°C° 0.1 mm 2 mps 655 mmHg 66%
    19:00 +24°C° 0.1 mm 2 mps 655 mmHg 73%
    20:00 +23°C° 0.1 mm 1 mps 655 mmHg 79%
    21:00 +22°C° 0 mm 1 mps 655 mmHg 81%
    22:00 +22°C° 0 mm 1 mps 655 mmHg 83%
    23:00 +21°C° 0 mm 1 mps 655 mmHg 86%
    Show more